sat.trackr.live / text

‹ back to catalog

VINDLER 2.2

NORAD 68484 · 2026-067BW

PAYLOAD ACTIVE UNKNOWN

§ Identity

Operator
Country
US
Launch date
2026-03-30
Launch site
AFWTR
Launch vehicle
Mass (kg)
RCS (m²)

External: N2YO · Heavens-Above · Gunter

§ Orbital elements

Epoch: 2026-05-25T03:53:22.085088Z

Period
95.88 min
Inclination
97.7620°
Eccentricity
0.0003096
Mean motion
15.01937887 rev/d
Perigee alt
558.8 km
Apogee alt
563.1 km
Semi-major
6,939.1 km
B*
2.5210e-4
RAAN
103.9748°
Arg perigee
41.3618°
Mean anomaly
318.7841°
Rev number
830

§ Raw data

VINDLER 2.21 68484U 26067BW  26145.16206117  .00003237  00000+0  25210-3 0  99902 68484  97.7620 103.9748 0003096  41.3618 318.7841 15.01937887  8308

JSON: /api/v1/satellites/68484 · /tle

For live sub-satellite position, see the globe view (requires WebGL).

§ Visibility from observer

Set your observer location to see the next 7 days of passes ≥ 10°. The values pass through the URL so the page stays shareable.

No JS? Fill the form by hand. The geolocation button needs JavaScript.